Location: Quedlinburg
(51.7921°N, 11.1414°E)
Time: 00:29:55
(UTC+01:00)

FO-29 - Visible Passes

Search period start: 13 March 2026 00:00
Search period end: 23 March 2026 00:00
Orbit: 800 x 1320 km, 98.5° (Epoch: 12 March)

Date Brightness Start Highest point End Pass type
(mag) Time Alt. Az. Time Alt. Az. Time Alt. Az.
13 Mar 12.0 05:54:12 10° E 05:58:29 21° NE 06:03:07 10° N visible
13 Mar 11.5 18:41:06 10° NE 18:44:21 13° E 18:47:39 10° ESE visible
13 Mar 10.1 20:23:38 10° NNE 20:30:50 56° E 20:38:29 10° S visible
13 Mar 11.0 22:08:58 10° N 22:15:42 44° WNW 22:22:54 10° SW visible
13 Mar 12.4 23:55:50 10° NNW 23:59:06 14° NW 00:02:30 10° WNW visible
14 Mar 12.4 05:02:34 10° NE 05:04:24 11° NE 05:06:16 10° NNE visible
14 Mar 10.8 19:28:58 10° NNE 19:35:09 28° E 19:41:36 10° SE visible
14 Mar 10.0 21:13:27 10° NNE 21:20:48 82° WNW 21:28:39 10° SSW visible
14 Mar 11.8 22:59:22 10° N 23:04:59 25° NW 23:10:54 10° WSW visible
15 Mar 12.1 05:48:53 10° E 05:53:10 21° NE 05:57:48 10° N visible
15 Mar 10.1 20:18:17 10° NNE 20:25:32 53° E 20:33:09 10° S visible
15 Mar 10.9 22:03:34 10° N 22:10:27 46° WNW 22:17:46 10° SW visible
15 Mar 12.4 23:50:14 10° N 23:53:53 15° NW 23:57:40 10° WNW visible
16 Mar 12.5 04:57:24 10° NE 04:59:08 11° NE 05:00:54 10° NNE visible
16 Mar 10.9 19:23:40 10° NNE 19:29:48 26° E 19:36:08 10° SE visible
16 Mar 10.0 21:08:04 10° NNE 21:15:32 86° WNW 21:23:25 10° SSW visible
16 Mar 11.8 22:53:55 10° N 22:59:45 27° NW 23:05:53 10° WSW visible
17 Mar 12.2 05:43:35 10° E 05:47:52 20° NE 05:52:30 10° N visible
17 Mar 10.2 20:12:56 10° NNE 20:20:14 50° E 20:27:49 10° S visible
17 Mar 10.8 21:58:09 10° N 22:05:12 49° WNW 22:12:38 10° SW visible
17 Mar 12.4 23:44:41 10° N 23:48:40 16° NW 23:52:49 10° WNW visible
18 Mar 12.6 04:52:14 10° NE 04:53:52 11° NE 04:55:32 10° NNE visible
18 Mar 11.0 19:18:24 10° NE 19:24:27 25° E 19:30:39 10° SE visible
18 Mar 10.0 21:02:42 10° NNE 21:10:16 89° WNW 21:18:10 10° SSW visible
18 Mar 11.7 22:48:28 10° N 22:54:31 28° NW 23:00:50 10° WSW visible
19 Mar 12.2 05:38:17 10° E 05:42:34 20° NE 05:47:11 10° N visible
19 Mar 10.3 20:07:36 10° NNE 20:14:55 48° E 20:22:28 10° S visible
19 Mar 10.8 21:52:46 10° N 21:59:57 51° WNW 22:07:28 10° SW visible
19 Mar 12.4 23:39:10 10° N 23:43:28 17° NW 23:47:54 10° WNW visible
20 Mar 12.6 04:47:06 10° NE 04:48:37 11° NE 04:50:10 10° NNE visible
20 Mar 11.0 19:13:08 10° NE 19:19:05 24° E 19:25:08 10° SE visible
20 Mar 10.0 20:57:20 10° NNE 21:05:00 87° ESE 21:12:55 10° SSW visible
20 Mar 11.7 22:43:03 10° N 22:49:17 30° NW 22:55:46 10° WSW visible
21 Mar 12.3 05:33:00 10° E 05:37:17 19° NE 05:41:54 10° N visible
21 Mar 10.3 20:02:18 10° NNE 20:09:37 46° E 20:17:05 10° SSE visible
21 Mar 10.7 21:47:23 10° N 21:54:43 54° WNW 22:02:18 10° SW visible
21 Mar 12.3 23:33:40 10° N 23:38:15 18° NW 23:42:58 10° W visible
22 Mar 12.7 04:41:59 10° NE 04:43:23 11° NNE 04:44:49 10° NNE visible
22 Mar 11.1 19:07:55 10° NE 19:13:44 23° E 19:19:36 10° SE visible
22 Mar 10.0 20:52:00 10° NNE 20:59:44 83° ESE 21:07:38 10° SSW visible
22 Mar 11.6 22:37:39 10° N 22:44:04 31° NW 22:50:42 10° WSW visible
